{"data":{"norad_id":68878,"epoch":"2026-09-20T04:15:03.600864Z","epoch_age_seconds":43403,"freshness":"FRESH","line1":"1 68878U 26095Q   26263.17712501  .00002271  00000+0  32734-3 0  9995","line2":"2 68878  51.8984 193.0809 0001682   6.5579 353.5405 14.79860867 21647","mean_motion":14.79860867,"eccentricity":0.0001682,"inclination_deg":51.8984,"raan_deg":193.0809,"arg_perigee_deg":6.5579,"mean_anomaly_deg":353.5405,"bstar":0.00032734,"rev_number":2164,"period_min":97.306444957842,"perigee_km":628.58461559266,"apogee_km":630.94207326853,"semimajor_km":7007.9003444306,"source":"CELESTRAK","updated_at":"2026-09-20T09:00:24.537626Z"}}